Main page
METAR-TAF:

METAR-TAF

Airports :

Wharton Regional Airport

Wharton, Texas, United States

latitude: 29-15-15N, longitude: 096-09-15W, elevation: 102 ft

Current weather observation

The report was made 21 minutes ago, at 10:15 UTC
Wind 10 mph from the East/Northeast with gusts up to 18 mph
Temperature 75°F
Humidity 100%
Pressure 29.83 in. Hg
Visibility: 10 miles
Scattered clouds at a height of 900 ft
Broken clouds at a height of 4500 ft
Overcast at a height of 7000 ft

METAR: KARM 191015Z AUTO 07009G16KT 10SM SCT009 BKN045 OVC070 24/24 A2983 RMK AO2 T02420235 TSNO

Time: 05:36 (10:36 UTC)


TAF: missing

Weather observations and forecasts of more than 4000 airports (METAR and TAF reports).

The available stations are represented by yellow and red dots on the map.

Hover mouse over dot to see the name of the station.

Then click to see weather observations and forecasts.

To change the map : click on the green buttons with a black cross to zoom in, on the green button with a dash to zoom out, or on the green arrows for adjacent maps.


METAR-TAF: